Location: Slanting_Bridge
(35.6330°N, 80.9830°W)
Time: 09:31:59
(UTC-04:00)

Amateur Radio Satellites - All Passes

Search period start: 29 April 2017 09:01
Search period end: 30 April 2017 09:01
Location: Slanting_Bridge, 35.6330°N, 80.9830°W

Satellite Date Start Highest point End Downlink Frequencies (MHz)
Time Altitude Azimuth
Oscar 11 29 Apr 09:02:59 09:03:19 10° 91° (E) 09:03:40 .
CUTE-I 29 Apr 09:13:02 09:16:05 16° 296° (WNW) 09:19:08 437.470
ISS 29 Apr 09:22:16 09:24:07 14° 333° (NNW) 09:25:59 437.550
AAUSAT CUBESAT 2 29 Apr 09:27:51 09:32:01 63° 100° (E) 09:36:09 437.432
UWE-3 29 Apr 09:29:21 09:33:31 57° 100° (E) 09:37:46 435.000/436.395/437.385
XW-2A 29 Apr 09:31:23 09:34:01 22° 288° (WNW) 09:36:39 145.665 - 145.685
STRAND 1 29 Apr 09:35:42 09:37:21 11° 269° (W) 09:38:59 437.568
HO-68 29 Apr 09:40:27 09:47:24 54° 291° (WNW) 09:54:20 435.675
TIGRISAT 29 Apr 09:48:26 09:51:20 18° 68° (ENE) 09:54:12 435.000
CUBEBUG 2 29 Apr 09:48:45 09:52:46 46° 286° (WNW) 09:56:52 437.445
CUTE 1.7 + AOD 2 29 Apr 09:50:23 09:53:35 21° 291° (WNW) 09:56:46 437.475
RS-15 29 Apr 09:52:02 10:02:34 33° 319° (NW) 10:13:21 29.354- 29.394
O/OREOS (USA 219) 29 Apr 10:04:29 10:08:51 47° 106° (ESE) 10:13:17 437.305
SEEDS 29 Apr 10:04:48 10:08:03 22° 290° (WNW) 10:11:18 437.485
FO-29 29 Apr 10:05:41 10:11:01 31° 70° (ENE) 10:15:53 435.910
UNISAT 6 29 Apr 10:09:23 10:13:17 33° 72° (ENE) 10:17:10 437.425
ZACube-1 29 Apr 10:18:14 10:22:28 67° 284° (WNW) 10:26:47 437.345
PRISM 29 Apr 10:18:53 10:23:01 75° 75° (ENE) 10:27:11 437.425
AO-73 29 Apr 10:23:22 10:27:35 65° 284° (WNW) 10:31:53 145.935
PCSat 29 Apr 10:34:32 10:37:58 17° 49° (NE) 10:41:23 145.827
Oscar 11 29 Apr 10:35:28 10:39:45 57° 285° (WNW) 10:44:01 .
UWE-3 29 Apr 11:08:32 11:09:29 11° 294° (WNW) 11:10:27 435.000/436.395/437.385
OBJECT BX 29 Apr 11:18:23 11:22:04 82° 283° (WNW) 11:25:44 145.990 - 145.960
DELFI C3 29 Apr 11:20:48 11:24:44 57° 285° (WNW) 11:28:38 145.870
AIST 2D 29 Apr 11:21:54 11:24:35 22° 72° (ENE) 11:27:19 435.315
TIGRISAT 29 Apr 11:23:46 11:27:45 34° 262° (W) 11:31:41 435.000
POLYITAN 1 29 Apr 11:23:54 11:26:16 15° 67° (ENE) 11:28:37 437.675
AO-85 29 Apr 11:24:27 11:27:05 16° 111° (ESE) 11:29:39 145.980
QB50P2 29 Apr 11:29:58 11:32:57 19° 69° (ENE) 11:35:56 145.880/145.840
O/OREOS (USA 219) 29 Apr 11:45:47 11:48:31 15° 302° (WNW) 11:51:16 437.305
UNISAT 6 29 Apr 11:47:06 11:50:03 18° 265° (W) 11:52:58 437.425
NANOSAT C BR1 29 Apr 11:48:19 11:51:47 25° 71° (ENE) 11:55:15 145.865
FO-29 29 Apr 11:50:22 11:55:59 33° 261° (W) 12:01:07 435.910
LO-87 29 Apr 12:12:29 12:15:58 53° 101° (E) 12:19:24 145.935 - 145.965
RS-15 29 Apr 12:14:38 12:20:55 15° 353° (N) 12:27:11 29.354- 29.394
DUCHIFAT 1 29 Apr 12:15:48 12:19:51 48° 74° (ENE) 12:23:52 145.980
PCSat 29 Apr 12:16:27 12:21:51 68° 247° (WSW) 12:27:13 145.827
EO-79 29 Apr 12:17:16 12:21:26 64° 75° (ENE) 12:25:36 145.935-145.965
ESTCUBE 1 29 Apr 12:26:06 12:30:23 39° 99° (E) 12:34:37 437.505/2401.250
AIST 2D 29 Apr 12:55:30 12:57:45 16° 266° (W) 12:59:59 435.315
POLYITAN 1 29 Apr 12:57:44 13:01:41 39° 261° (W) 13:05:38 437.675
AO-85 29 Apr 13:03:08 13:07:12 39° 303° (WNW) 13:11:03 145.980
QB50P2 29 Apr 13:04:48 13:08:31 30° 263° (W) 13:12:14 145.880/145.840
BUGSAT 1 29 Apr 13:05:23 13:09:26 57° 75° (ENE) 13:13:28 437.445
SPROUT 29 Apr 13:06:21 13:09:57 26° 97° (E) 13:13:31 437.525
DX 1 29 Apr 13:11:32 13:11:56 10° 92° (E) 13:12:19 434.975-435.025
BEESAT 3 29 Apr 13:23:04 13:26:55 58° 116° (ESE) 13:30:50 437.485
NANOSAT C BR1 29 Apr 13:24:10 13:27:25 22° 264° (W) 13:30:40 145.865
BEESAT 2 29 Apr 13:29:43 13:32:51 23° 111° (ESE) 13:36:01 435.950
Tancredo 1 29 Apr 13:30:30 13:32:10 13° 27° (NNE) 13:33:48 437.200
DUCHIFAT 1 29 Apr 13:54:31 13:55:44 11° 268° (W) 13:56:56 145.980
50 SAT 29 Apr 13:59:38 14:03:06 75° 102° (ESE) 14:06:32 437.505
VELOX 1 29 Apr 14:02:23 14:06:45 62° 285° (WNW) 14:11:04 145.980
ESTCUBE 1 29 Apr 14:03:54 14:06:50 17° 293° (WNW) 14:09:46 437.505/2401.250
UKube-1 29 Apr 14:05:08 14:09:00 31° 98° (E) 14:12:50 .
Oscar 19 29 Apr 14:07:08 14:12:17 85° 74° (ENE) 14:17:30 437.125/150
ISS 29 Apr 14:14:38 14:17:23 24° 33° (NNE) 14:20:07 437.550
SO-50 29 Apr 14:18:04 14:20:32 14° 46° (NE) 14:23:01 436.795
RS-15 29 Apr 14:31:06 14:40:20 23° 31° (NNE) 14:49:17 29.354- 29.394
Gurwin Techsat 1B 29 Apr 14:33:14 14:38:33 87° 77° (ENE) 14:43:54 435.225
YUBILEINY 29 Apr 14:39:52 14:46:04 21° 68° (ENE) 14:52:13 435.215
SPROUT 29 Apr 14:42:27 14:45:41 22° 291° (WNW) 14:48:55 437.525
DX 1 29 Apr 14:44:09 14:48:25 57° 286° (WNW) 14:52:39 434.975-435.025
AO-7 29 Apr 14:54:19 15:01:19 32° 61° (ENE) 15:08:18 .
BEESAT 3 29 Apr 15:03:14 15:04:51 12° 313° (NW) 15:06:29 437.485
Tancredo 1 29 Apr 15:05:16 15:08:21 69° 223° (SW) 15:11:25 437.200
BEESAT 2 29 Apr 15:07:10 15:10:28 25° 307° (NW) 15:13:50 435.950
ITUPSAT 1 29 Apr 15:15:51 15:18:26 14° 93° (E) 15:21:01 437.325
MOZHAYETS 4 29 Apr 15:37:16 15:38:41 11° 91° (E) 15:40:05
ITAMSAT 1 29 Apr 15:39:52 15:44:56 55° 72° (ENE) 15:49:59 435.822/435.867
UKube-1 29 Apr 15:41:43 15:44:46 19° 292° (WNW) 15:47:49 .
JUGNU 29 Apr 15:48:08 15:48:50 10° 166° (SSE) 15:49:33 437.505
ISS 29 Apr 15:51:00 15:53:51 28° 229° (SW) 15:56:42 437.550
SO-50 29 Apr 15:56:57 16:01:23 62° 243° (WSW) 16:05:50 436.795
BEESAT 29 Apr 16:08:59 16:13:41 57° 101° (E) 16:18:22 436.000
YUBILEINY 29 Apr 16:34:55 16:43:40 75° 267° (W) 16:52:25 435.215
RS-15 29 Apr 16:43:18 16:55:33 72° 58° (ENE) 17:07:08 29.354- 29.394
AO-7 29 Apr 16:45:37 16:53:38 54° 257° (WSW) 17:01:43 .
ITUPSAT 1 29 Apr 16:51:52 16:56:29 50° 287° (WNW) 17:01:06 437.325
KKS-1 29 Apr 17:02:00 17:04:37 15° 94° (E) 17:07:13 437.445
MOZHAYETS 4 29 Apr 17:11:36 17:16:09 58° 285° (WNW) 17:20:41
ITAMSAT 1 29 Apr 17:21:47 17:24:40 15° 267° (W) 17:27:33 435.822/435.867
DOVE 4 29 Apr 17:23:34 17:27:01 18° 67° (ENE) 17:30:24 437.250
STARS 29 Apr 17:25:55 17:27:06 11° 92° (E) 17:28:17 437.465
JUGNU 29 Apr 17:33:34 17:37:02 16° 175° (S) 17:40:31 437.505
BEESAT 29 Apr 17:48:38 17:50:55 14° 296° (WNW) 17:53:14 436.000
CUBESAT XI-V 29 Apr 18:11:08 18:15:52 82° 283° (WNW) 18:20:33 437.345
HO-68 29 Apr 18:21:53 18:25:26 15° 56° (ENE) 18:28:58 435.675
XW-2D 29 Apr 18:24:59 18:28:27 37° 74° (ENE) 18:31:57 145.860 - 145.880
NO-84 29 Apr 18:28:43 18:32:30 44° 129° (SE) 18:36:00 435.350 FM
XW-2B 29 Apr 18:31:54 18:35:28 45° 75° (ENE) 18:39:03 145.730 - 145.750
KAITUO 1B 29 Apr 18:33:42 18:37:06 36° 74° (ENE) 18:40:32 145.475/437.950
YUBILEINY 29 Apr 18:36:44 18:38:50 11° 284° (WNW) 18:40:56 435.215
KKS-1 29 Apr 18:37:10 18:41:18 40° 288° (WNW) 18:45:25 437.445
XW-2C 29 Apr 18:43:50 18:47:32 69° 76° (ENE) 18:51:15 145.795 - 145.815
LilacSat-2 29 Apr 18:46:34 18:50:19 80° 77° (ENE) 18:54:06 437.200
CUTE-I 29 Apr 18:50:05 18:55:25 73° 75° (ENE) 19:00:44 437.470
RS-15 29 Apr 18:57:16 19:06:50 29° 258° (WSW) 19:16:06 29.354- 29.394
DOVE 4 29 Apr 18:59:05 19:04:14 52° 261° (W) 19:09:19 437.250
STARS 29 Apr 18:59:28 19:03:43 53° 286° (WNW) 19:07:56 437.465
SRMSAT 29 Apr 19:03:09 19:05:51 13° 169° (S) 19:08:34 437.500
CUTE 1.7 + AOD 2 29 Apr 19:05:13 19:07:30 14° 67° (ENE) 19:09:48 437.475
XW-2F 29 Apr 19:06:52 19:10:32 58° 260° (W) 19:14:12 145.980 - 146.000
NUDT-PHONESAT 29 Apr 19:08:11 19:11:49 70° 259° (W) 19:15:29 437.300
SEEDS 29 Apr 19:19:10 19:21:08 13° 66° (ENE) 19:23:06 437.485
JUGNU 29 Apr 19:21:53 19:25:17 16° 186° (S) 19:28:42 437.505
XW-2A 29 Apr 19:58:54 20:02:13 66° 77° (ENE) 20:05:33 145.665 - 145.685
XW-2D 29 Apr 20:01:43 20:02:47 11° 268° (W) 20:03:52 145.860 - 145.880
HO-68 29 Apr 20:04:56 20:12:05 85° 74° (ENE) 20:19:17 435.675
STRAND 1 29 Apr 20:06:35 20:10:59 29° 97° (E) 20:15:23 437.568
NO-84 29 Apr 20:07:27 20:10:09 19° 322° (NW) 20:12:44 435.350 FM
KAITUO 1B 29 Apr 20:10:12 20:11:16 11° 268° (W) 20:12:19 145.475/437.950
AAUSAT CUBESAT 2 29 Apr 20:15:11 20:18:41 27° 71° (ENE) 20:22:13 437.432
O/OREOS (USA 219) 29 Apr 20:17:20 20:21:50 55° 68° (ENE) 20:26:16 437.305
UWE-3 29 Apr 20:23:40 20:27:23 30° 72° (ENE) 20:31:04 435.000/436.395/437.385
M-CUBED/EXP-1 PRIME 29 Apr 20:31:21 20:34:46 27° 101° (E) 20:37:57 437.505
CUTE-I 29 Apr 20:34:16 20:35:55 11° 269° (W) 20:37:34 437.470
CUTE 1.7 + AOD 2 29 Apr 20:38:59 20:42:57 40° 262° (W) 20:46:57 437.475
CUBEBUG 2 29 Apr 20:43:22 20:47:44 86° 258° (WSW) 20:51:59 437.445
SRMSAT 29 Apr 20:50:29 20:54:16 17° 179° (S) 20:58:03 437.500
SEEDS 29 Apr 20:52:23 20:56:22 44° 261° (W) 21:00:25 437.485
ZACube-1 29 Apr 21:10:52 21:15:00 62° 75° (ENE) 21:19:06 437.345
AO-73 29 Apr 21:15:40 21:19:48 64° 75° (ENE) 21:23:53 145.935
Oscar 11 29 Apr 21:26:48 21:31:04 72° 76° (ENE) 21:35:21 .
AO-85 29 Apr 21:36:21 21:40:21 66° 60° (ENE) 21:44:32 145.980
BEESAT 3 29 Apr 21:43:34 21:45:58 15° 49° (NE) 21:48:20 437.485
STRAND 1 29 Apr 21:45:44 21:50:03 28° 291° (WNW) 21:54:22 437.568
AAUSAT CUBESAT 2 29 Apr 21:51:03 21:54:06 20° 265° (W) 21:57:10 437.432
OBJECT BX 29 Apr 21:53:37 21:56:37 25° 72° (ENE) 21:59:37 145.990 - 145.960
HO-68 29 Apr 21:56:59 22:00:31 14° 269° (W) 22:04:03 435.675
O/OREOS (USA 219) 29 Apr 21:59:16 22:00:39 11° 263° (W) 22:02:02 437.305
UWE-3 29 Apr 22:00:57 22:03:52 18° 265° (W) 22:06:45 435.000/436.395/437.385
DELFI C3 29 Apr 22:02:50 22:06:40 48° 75° (ENE) 22:10:32 145.870
PRISM 29 Apr 22:05:02 22:06:48 12° 93° (E) 22:08:36 437.425
M-CUBED/EXP-1 PRIME 29 Apr 22:06:11 22:08:58 18° 298° (WNW) 22:11:37 437.505
SRMSAT 29 Apr 22:39:37 22:42:41 14° 189° (S) 22:45:45 437.500
LO-87 29 Apr 22:46:57 22:48:57 14° 69° (ENE) 22:50:58 145.935 - 145.965
FO-29 29 Apr 23:01:23 23:06:08 32° 98° (E) 23:11:15 435.910
TIGRISAT 29 Apr 23:17:22 23:21:37 57° 101° (E) 23:25:55 435.000
BEESAT 3 29 Apr 23:19:56 23:23:46 44° 245° (WSW) 23:27:32 437.485
ESTCUBE 1 29 Apr 23:22:58 23:26:40 26° 70° (ENE) 23:30:24 437.505/2401.250
BEESAT 2 29 Apr 23:26:35 23:30:40 73° 61° (ENE) 23:34:39 435.950
OBJECT BX 29 Apr 23:28:00 23:30:16 16° 266° (W) 23:32:33 145.990 - 145.960
PRISM 29 Apr 23:38:21 23:42:16 42° 287° (WNW) 23:46:08 437.425
UNISAT 6 29 Apr 23:39:39 23:43:57 71° 284° (WNW) 23:48:19 437.425
SPROUT 29 Apr 23:57:55 00:00:18 15° 67° (ENE) 00:02:41 437.525
EO-79 30 Apr 00:06:35 00:08:28 13° 93° (E) 00:10:19 145.935-145.965
LO-87 30 Apr 00:18:56 00:22:07 28° 263° (W) 00:25:18 145.935 - 145.965
AIST 2D 30 Apr 00:22:02 00:25:23 39° 99° (E) 00:28:43 435.315
50 SAT 30 Apr 00:30:21 00:32:38 17° 70° (ENE) 00:34:55 437.505
POLYITAN 1 30 Apr 00:45:10 00:49:06 38° 99° (E) 00:53:01 437.675
FO-29 30 Apr 00:46:43 00:51:08 27° 291° (WNW) 00:55:50 435.910
QB50P2 30 Apr 00:51:51 00:55:58 51° 100° (E) 01:00:03 145.880/145.840
VELOX 1 30 Apr 00:56:06 01:00:33 79° 75° (ENE) 01:05:01 145.980
TIGRISAT 30 Apr 00:56:33 00:57:48 11° 295° (WNW) 00:59:03 435.000
UKube-1 30 Apr 00:57:17 01:00:21 19° 68° (ENE) 01:03:26 .
ESTCUBE 1 30 Apr 00:59:40 01:03:21 25° 264° (W) 01:07:05 437.505/2401.250
NANOSAT C BR1 30 Apr 01:10:03 01:14:15 71° 102° (ESE) 01:18:25 145.865
PCSat 30 Apr 01:12:58 01:17:12 24° 107° (ESE) 01:21:27 145.827
SPROUT 30 Apr 01:31:48 01:35:50 41° 261° (W) 01:39:52 437.525
DX 1 30 Apr 01:36:09 01:40:31 82° 75° (ENE) 01:44:55 434.975-435.025
DUCHIFAT 1 30 Apr 01:37:56 01:42:02 57° 285° (WNW) 01:46:07 145.980
EO-79 30 Apr 01:40:25 01:44:24 43° 286° (WNW) 01:48:22 145.935-145.965
50 SAT 30 Apr 02:02:36 02:05:22 22° 264° (W) 02:08:09 437.505
ITUPSAT 1 30 Apr 02:20:40 02:22:45 13° 64° (ENE) 02:24:51 437.325
Oscar 19 30 Apr 02:21:55 02:26:45 38° 98° (E) 02:31:32 437.125/150
POLYITAN 1 30 Apr 02:22:06 02:24:32 15° 293° (WNW) 02:26:58 437.675
BUGSAT 1 30 Apr 02:25:05 02:28:59 52° 285° (WNW) 02:32:53 437.445
QB50P2 30 Apr 02:29:46 02:31:16 12° 295° (WNW) 02:32:46 145.880/145.840
UKube-1 30 Apr 02:32:17 02:36:07 31° 262° (W) 02:40:00 .
NO-84 30 Apr 02:42:47 02:45:41 71° 46° (NE) 02:48:29 435.350 FM
Gurwin Techsat 1B 30 Apr 02:52:37 02:57:41 44° 99° (E) 03:02:43 435.225
PCSat 30 Apr 02:55:14 03:00:19 40° 302° (WNW) 03:05:25 145.827
BEESAT 30 Apr 03:12:20 03:16:52 47° 73° (ENE) 03:21:25 436.000
YUBILEINY 30 Apr 03:37:36 03:44:18 26° 83° (E) 03:51:00 435.215
ITUPSAT 1 30 Apr 03:55:20 04:00:01 60° 259° (W) 04:04:44 437.325
ITAMSAT 1 30 Apr 03:56:14 04:00:26 24° 96° (E) 04:04:36 435.822/435.867
KKS-1 30 Apr 03:59:00 04:00:04 11° 64° (ENE) 04:01:07 437.445
Oscar 19 30 Apr 04:01:47 04:05:47 23° 293° (WNW) 04:09:46 437.125/150
MOZHAYETS 4 30 Apr 04:10:05 04:14:38 88° 261° (W) 04:19:13
Gurwin Techsat 1B 30 Apr 04:33:25 04:37:16 21° 294° (WNW) 04:41:07 435.225
AO-7 30 Apr 04:50:07 04:58:23 64° 104° (ESE) 05:06:37 .
BEESAT 30 Apr 04:52:10 04:54:51 15° 267° (W) 04:57:33 436.000
CUBESAT XI-V 30 Apr 05:11:03 05:15:39 68° 76° (ENE) 05:20:19 437.345
KKS-1 30 Apr 05:31:36 05:36:01 64° 258° (WSW) 05:40:29 437.445
YUBILEINY 30 Apr 05:31:54 05:40:24 59° 280° (W) 05:48:59 435.215
ITAMSAT 1 30 Apr 05:35:15 05:39:53 34° 290° (WNW) 05:44:31 435.822/435.867
STARS 30 Apr 05:52:32 05:56:56 90° 146° (SE) 06:01:22 437.465
Tancredo 1 30 Apr 06:03:11 06:04:17 11° 127° (SE) 06:05:24 437.200
SO-50 30 Apr 06:07:50 06:12:28 85° 120° (ESE) 06:17:05 436.795
LilacSat-2 30 Apr 06:25:08 06:25:57 11° 92° (E) 06:26:47 437.200
XW-2F 30 Apr 06:42:43 06:45:14 17° 94° (E) 06:47:45 145.980 - 146.000
NUDT-PHONESAT 30 Apr 06:42:59 06:44:46 13° 93° (E) 06:46:33 437.300
AO-7 30 Apr 06:43:56 06:50:30 27° 301° (WNW) 06:57:05 .
ISS 30 Apr 06:52:24 06:55:22 32° 132° (SE) 06:58:20 437.550
RS-15 30 Apr 07:01:09 07:12:48 63° 112° (ESE) 07:24:52 29.354- 29.394
DOVE 4 30 Apr 07:01:32 07:05:55 54° 100° (E) 07:10:03 437.250
CUTE-I 30 Apr 07:10:24 07:15:17 36° 98° (E) 07:20:09 437.470
M-CUBED/EXP-1 PRIME 30 Apr 07:13:22 07:17:15 27° 65° (ENE) 07:21:10 437.505
STRAND 1 30 Apr 07:19:38 07:24:05 31° 69° (ENE) 07:28:32 437.568
XW-2D 30 Apr 07:33:57 07:37:47 90° 237° (WSW) 07:41:36 145.860 - 145.880
Tancredo 1 30 Apr 07:36:50 07:39:50 48° 321° (NW) 07:42:50 437.200
HO-68 30 Apr 07:37:36 07:42:21 19° 93° (E) 07:47:05 435.675
XW-2B 30 Apr 07:41:00 07:44:50 75° 282° (WNW) 07:48:39 145.730 - 145.750
KAITUO 1B 30 Apr 07:41:08 07:44:55 85° 100° (E) 07:48:43 145.475/437.950
SO-50 30 Apr 07:51:54 07:53:31 12° 316° (NW) 07:55:07 436.795
XW-2C 30 Apr 07:53:12 07:56:54 50° 285° (WNW) 08:00:37 145.795 - 145.815
LilacSat-2 30 Apr 07:56:45 08:00:25 42° 285° (WNW) 08:04:04 437.200
NUDT-PHONESAT 30 Apr 08:15:23 08:18:44 32° 287° (WNW) 08:22:06 437.300
XW-2F 30 Apr 08:16:08 08:19:20 26° 288° (WNW) 08:22:35 145.980 - 146.000
CUTE 1.7 + AOD 2 30 Apr 08:26:27 08:30:31 40° 98° (E) 08:34:33 437.475
ISS 30 Apr 08:29:15 08:31:53 22° 328° (NNW) 08:34:32 437.550
CUBEBUG 2 30 Apr 08:37:22 08:40:43 23° 96° (E) 08:44:08 437.445
SEEDS 30 Apr 08:38:57 08:42:52 35° 98° (E) 08:46:45 437.485
DOVE 4 30 Apr 08:41:29 08:43:00 12° 296° (WNW) 08:44:31 437.250
M-CUBED/EXP-1 PRIME 30 Apr 08:47:32 08:51:30 28° 259° (W) 08:55:33 437.505
CUTE-I 30 Apr 08:50:52 08:55:05 24° 293° (WNW) 08:59:17 437.470
